Weather History for Paynesville, MN

Change the Weather History Date:

Tuesday, April 2, 2013

  Actual Average (KLJF) Record (KLJF)
Temperature  
Mean Temperature 22 °F -  
Max Temperature 31 °F 49 °F 76 °F (1963)
Min Temperature 12 °F 29 °F 2 °F (1954)
Degree Days  
Heating Degree Days 44    
Moisture  
Dew Point 14 °F    
Average Humidity 74    
Maximum Humidity 93    
Minimum Humidity 47    
Precipitation  
Precipitation 0.00 in - - ()
Sea Level Pressure  
Sea Level Pressure 30.31 in    
Wind  
Wind Speed 4 mph (WNW)    
Max Wind Speed 9 mph    
Max Gust Speed -    
Visibility 10 miles    
Events      
Averages and records for this station are not official NWS values.
T = Trace of Precipitation, MM = Missing Value Source: NWS Daily Summary

Daily Weather History Graph

Daily Weather History Graph

Search for Another Location

Airport:

Trip Planner

Search our weather history database for the weather conditions in past years. The results will help you decide how hot, cold, wet, or windy it might be!

Date:

Astronomy

Apr. 02, 2013 Rise Set
Actual Time 6:56 AM CDT 7:48 PM CDT
Civil Twilight 6:27 AM CDT 8:18 PM CDT
Nautical Twilight 5:51 AM CDT 8:54 PM CDT
Astronomical Twilight 5:14 AM CDT 9:32 PM CDT
Moon 2:05 AM CDT (4/2) 11:37 AM CDT (4/2)
Length of Visible Light 13h 51m
Length of Day
12h 51m
Waning Gibbous, 55% of the Moon is Illuminated
Apr 2
Waning Gibbous
Apr 2
Last Quarter
Apr 10
New
Apr 18
First Quarter
Apr 25
Full

Hourly Weather History & Observations

Time (CDT) Temp. Windchill Dew Point Humidity Pressure Visibility Wind Dir Wind Speed Gust Speed Precip Events Conditions
12:13 AM 16.3 °F 10.8 °F 13.8 °F 90% 30.26 in 10.0 mi West 3.5 mph - N/A   Clear
12:33 AM 16.2 °F 9.0 °F 13.6 °F 90% 30.26 in 10.0 mi West 4.6 mph - N/A   Clear
12:53 AM 16.2 °F 9.0 °F 13.6 °F 90% 30.26 in 10.0 mi West 4.6 mph - N/A   Clear
1:13 AM 16.2 °F 9.0 °F 13.5 °F 89% 30.26 in 10.0 mi West 4.6 mph - N/A   Clear
1:33 AM 15.3 °F - 12.9 °F 90% 30.26 in 10.0 mi Calm Calm - N/A   Clear
1:53 AM 14.9 °F 9.2 °F 12.7 °F 91% 30.26 in 10.0 mi WSW 3.5 mph - N/A   Clear
2:12 AM 15.3 °F 9.6 °F 12.6 °F 89% 30.26 in 10.0 mi West 3.5 mph - N/A   Clear
2:33 AM 15.3 °F 9.6 °F 12.9 °F 90% 30.26 in 10.0 mi WNW 3.5 mph - N/A   Clear
2:53 AM 15.3 °F 9.6 °F 12.6 °F 89% 30.26 in 10.0 mi West 3.5 mph - N/A   Clear
3:13 AM 14.7 °F 9.0 °F 12.2 °F 90% 30.26 in 10.0 mi West 3.5 mph - N/A   Clear
3:33 AM 14.2 °F 6.7 °F 11.8 °F 90% 30.26 in 10.0 mi WSW 4.6 mph - N/A   Clear
3:53 AM 14.0 °F - 11.7 °F 90% 30.25 in 10.0 mi Calm Calm - N/A   Clear
4:13 AM 13.8 °F - 11.8 °F 92% 30.25 in 10.0 mi Calm Calm - N/A   Clear
4:33 AM 14.0 °F - 12.2 °F 93% 30.26 in 10.0 mi Calm Calm - N/A   Clear
4:53 AM 13.6 °F 7.7 °F 12.0 °F 93% 30.26 in 10.0 mi West 3.5 mph - N/A   Clear
5:13 AM 13.6 °F - 12.0 °F 93% 30.26 in 10.0 mi Calm Calm - N/A   Clear
5:32 AM 12.7 °F 5.0 °F 10.9 °F 92% 30.26 in 10.0 mi WSW 4.6 mph - N/A   Clear
5:53 AM 12.9 °F 5.2 °F 11.3 °F 93% 30.27 in 10.0 mi West 4.6 mph - N/A   Clear
6:13 AM 13.1 °F 5.4 °F 11.3 °F 93% 30.28 in 10.0 mi West 4.6 mph - N/A   Clear
6:33 AM 12.6 °F 6.5 °F 10.8 °F 92% 30.28 in 10.0 mi West 3.5 mph - N/A   Clear
6:53 AM 12.9 °F 5.2 °F 10.9 °F 92% 30.29 in 10.0 mi West 4.6 mph - N/A   Clear
7:13 AM 12.2 °F 4.3 °F 10.4 °F 92% 30.29 in 10.0 mi West 4.6 mph - N/A   Clear
7:33 AM 12.9 °F 6.9 °F 10.9 °F 92% 30.30 in 10.0 mi West 3.5 mph - N/A   Clear
7:53 AM 14.7 °F - 12.9 °F 93% 30.31 in 10.0 mi Calm Calm - N/A   Clear
8:13 AM 16.0 °F 10.4 °F 14.2 °F 93% 30.32 in 10.0 mi West 3.5 mph - N/A   Clear
8:33 AM 17.8 °F 12.5 °F 15.6 °F 91% 30.32 in 10.0 mi WNW 3.5 mph - N/A   Clear
8:53 AM 19.9 °F 13.4 °F 15.8 °F 84% 30.33 in 10.0 mi West 4.6 mph - N/A   Clear
9:33 AM 22.3 °F 16.1 °F 16.7 °F 79% 30.33 in 10.0 mi West 4.6 mph - N/A   Clear
9:53 AM 23.0 °F 18.4 °F 17.4 °F 79% 30.33 in 10.0 mi WNW 3.5 mph - N/A   Clear
10:13 AM 24.1 °F 19.7 °F 16.5 °F 73% 30.33 in 10.0 mi NW 3.5 mph - N/A   Clear
10:33 AM 24.8 °F 19.1 °F 16.5 °F 71% 30.33 in 10.0 mi WNW 4.6 mph - N/A   Clear
10:53 AM 25.3 °F 17.6 °F 15.4 °F 66% 30.33 in 10.0 mi NW 6.9 mph - N/A   Clear
11:13 AM 26.1 °F 20.5 °F 16.3 °F 67% 30.34 in 10.0 mi NNW 4.6 mph - N/A   Clear
11:33 AM 26.6 °F 17.5 °F 14.4 °F 60% 30.34 in 10.0 mi NW 9.2 mph - N/A   Clear
11:53 AM 27.3 °F 20.9 °F 14.0 °F 57% 30.34 in 10.0 mi North 5.8 mph - N/A   Clear
12:13 PM 27.7 °F 20.4 °F 14.0 °F 57% 30.34 in 10.0 mi WNW 6.9 mph - N/A   Clear
12:33 PM 28.4 °F 20.4 °F 12.4 °F 51% 30.34 in 10.0 mi NNW 8.1 mph - N/A   Clear
12:53 PM 28.6 °F 20.7 °F 13.6 °F 54% 30.33 in 10.0 mi NW 8.1 mph - N/A   Clear
1:13 PM 28.9 °F 20.4 °F 12.0 °F 49% 30.33 in 10.0 mi NW 9.2 mph - N/A   Clear
1:33 PM 29.1 °F 20.6 °F 13.6 °F 52% 30.33 in 10.0 mi NW 9.2 mph - N/A   Clear
1:53 PM 29.5 °F 21.8 °F 12.7 °F 50% 30.33 in 10.0 mi North 8.1 mph - N/A   Clear
2:13 PM 30.0 °F 22.4 °F 14.2 °F 52% 30.33 in 10.0 mi NNW 8.1 mph - N/A   Clear
2:33 PM 30.2 °F 21.9 °F 14.2 °F 51% 30.33 in 10.0 mi NW 9.2 mph - N/A   Clear
2:53 PM 30.2 °F 24.3 °F 14.2 °F 51% 30.33 in 10.0 mi North 5.8 mph - N/A   Clear
3:13 PM 30.2 °F 24.3 °F 14.7 °F 53% 30.33 in 10.0 mi West 5.8 mph - N/A   Clear
3:33 PM 30.9 °F 24.3 °F 14.5 °F 51% 30.33 in 10.0 mi WNW 6.9 mph - N/A   Clear
3:53 PM 30.7 °F 24.9 °F 14.0 °F 50% 30.33 in 10.0 mi WNW 5.8 mph - N/A   Clear
4:13 PM 31.1 °F 23.7 °F 14.2 °F 50% 30.32 in 10.0 mi NNW 8.1 mph - N/A   Clear
4:33 PM 31.1 °F 23.7 °F 13.8 °F 49% 30.32 in 10.0 mi NW 8.1 mph - N/A   Clear
4:48 PM 31.1 °F 23.7 °F 13.5 °F 48% 30.33 in 10.0 mi NNW 8.1 mph - N/A   Clear
5:20 PM 31.1 °F 25.4 °F 13.3 °F 48% 30.33 in 10.0 mi WNW 5.8 mph - N/A   Clear
5:33 PM 31.1 °F 26.4 °F 14.4 °F 50% 30.33 in 10.0 mi NNW 4.6 mph - N/A   Clear
5:52 PM 31.1 °F 25.4 °F 13.1 °F 47% 30.33 in 10.0 mi WNW 5.8 mph - N/A   Clear
6:13 PM 31.1 °F - 14.7 °F 51% 30.33 in 10.0 mi Calm Calm - N/A   Clear
6:33 PM 30.9 °F 27.5 °F 14.2 °F 50% 30.33 in 10.0 mi NNW 3.5 mph - N/A   Clear
6:53 PM 30.6 °F 27.1 °F 14.0 °F 50% 30.33 in 10.0 mi NNW 3.5 mph - N/A   Clear
7:13 PM 30.2 °F 26.7 °F 14.4 °F 52% 30.33 in 10.0 mi NW 3.5 mph - N/A   Clear
7:33 PM 29.5 °F - 14.9 °F 55% 30.33 in 10.0 mi Calm Calm - N/A   Clear
7:53 PM 28.6 °F - 16.3 °F 60% 30.33 in 10.0 mi Calm Calm - N/A   Clear
8:13 PM 27.1 °F - 18.9 °F 71% 30.33 in 10.0 mi Calm Calm - N/A   Clear
8:33 PM 25.7 °F - 16.3 °F 68% 30.33 in 10.0 mi Calm Calm - N/A   Clear
8:53 PM 24.8 °F - 17.8 °F 75% 30.34 in 10.0 mi Calm Calm - N/A   Clear
9:13 PM 23.9 °F - 18.9 °F 81% 30.34 in 10.0 mi Calm Calm - N/A   Clear
9:33 PM 23.2 °F - 19.8 °F 87% 30.34 in 10.0 mi Calm Calm - N/A   Clear
9:53 PM 22.6 °F - 19.4 °F 87% 30.34 in 10.0 mi Calm Calm - N/A   Clear
10:13 PM 22.5 °F - 18.9 °F 86% 30.34 in 10.0 mi Calm Calm - N/A   Clear
10:33 PM 21.7 °F - 19.2 °F 90% 30.34 in 10.0 mi Calm Calm - N/A   Clear
10:53 PM 21.9 °F - 19.4 °F 90% 30.34 in 10.0 mi Calm Calm - N/A   Clear
11:12 PM 21.2 °F - 18.0 °F 87% 30.34 in 10.0 mi Calm Calm - N/A   Clear
11:33 PM 19.6 °F - 17.8 °F 93% 30.34 in 10.0 mi Calm Calm - N/A   Clear
11:53 PM 19.8 °F 13.2 °F 17.4 °F 91% 30.34 in 10.0 mi West 4.6 mph - N/A   Clear